This demonstration page uses our WeatherBlox Daily Observations layout. Learn more.

Left ArrowRight Arrow

39.12711, -84.51439

Hourly Observations for September 16, 2016

Temp ( °F °C ) Dew Point ( °F °C ) Humidity (%) Winds ( mph kmh ) Pressure ( in mb ) Visibility ( mi km ) Precip ( " mm )
12:53 am 00:53 Clear 63 17.2 63 17.2 100 100 Calm 30.13 1020 10 16 0.00 0.00
1:53 am 01:53 Clear 61 16.1 61 16.1 100 100 Calm 30.12 1020 10 16 0.00 0.00
2:53 am 02:53 Clear 61 16.1 61 16.1 100 100 Calm 30.11 1020 10 16 0.00 0.00
3:53 am 03:53 Clear 61 16.1 61 16.1 100 100 Calm 30.10 1019 10 16 0.00 0.00
4:53 am 04:53 Clear 61 16.1 61 16.1 100 100 Calm 30.10 1019 10 16 0.00 0.00
5:53 am 05:53 Clear 60 15.6 60 15.6 100 100 Calm 30.10 1019 8 13 0.00 0.00
6:53 am 06:53 Clear 60 15.6 60 15.6 100 100 NNE 3 6 30.11 1020 10 16 0.00 0.00
7:53 am 07:53 Sunny 61 16.1 61 16.1 100 100 NNE 3 6 30.12 1020 10 16 0.00 0.00
8:53 am 08:53 Sunny 65 18.3 63 17.2 93 93 Calm 30.14 1021 10 16 0.00 0.00
9:53 am 09:53 Sunny 70 21.1 65 18.3 84 84 NE 3 6 30.13 1020 10 16 0.00 0.00
10:53 am 10:53 Sunny 74 23.3 66 18.9 76 76 Calm 30.12 1020 10 16 0.00 0.00
11:53 am 11:53 Sunny 78 25.6 69 20.6 74 74 Calm 30.10 1019 10 16 0.00 0.00
12:53 pm 12:53 Sunny 83 28.3 70 21.1 65 65 S 8 13 30.08 1019 10 16 0.00 0.00
1:53 pm 13:53 Sunny 85 29.4 70 21.1 61 61 SE 7 11 30.05 1018 10 16 0.00 0.00
2:53 pm 14:53 Sunny 86 30 71 21.7 61 61 ESE 8 13 30.03 1017 10 16 0.00 0.00
3:53 pm 15:53 Sunny 85 29.4 70 21.1 61 61 SSW 8 13 30.02 1017 10 16 0.00 0.00
4:53 pm 16:53 Sunny 87 30.6 71 21.7 59 59 S 5 7 30.01 1016 10 16 0.00 0.00
5:53 pm 17:53 Mostly Sunny 82 27.8 75 23.9 79 79 Calm 30.00 1016 10 16 0.00 0.00
6:26 pm 18:26 Cloudy with Thunderstorms 75 24 70 21 83 83 W 16 26 30.00 1016 6 10 0.00 0.00
6:53 pm 18:53 Mostly Cloudy with Thunderstorms 72 22.2 71 21.7 97 97 WSW 6 9 30.04 1017 8 13 0.05 1.27
7:23 pm 19:23 Mostly Cloudy 73 22.8 72 22.2 96 96 NE 5 7 30.00 1016 8 13 0.00 0.03
7:53 pm 19:53 Mostly Cloudy 72 22.2 72 22.2 100 100 N 3 6 30.02 1017 10 16 0.00 0.03
8:53 pm 20:53 Clear 70 21.1 70 21.1 100 100 Calm 30.02 1017 8 13 0.00 0.00
9:53 pm 21:53 Clear 71 21.7 71 21.7 100 100 SSW 3 6 30.03 1017 9 14 0.00 0.00
10:53 pm 22:53 Clear 71 21.7 71 21.7 100 100 W 3 6 30.04 1017 10 16 0.00 0.00
11:53 pm 23:53 Clear 70 21.1 70 21.1 100 100 WSW 3 6 30.03 1017 9 14 0.00 0.00

Powered by AerisWeather